Location: 22
(39.7117°N, 89.5929°W)
Time: 09:43:46
(UTC-05:00)

S-56A Canister/Altair - Pass Details

Date: 14 February 2023
Orbit: 638 x 2493 km, 38.9° (Epoch: 25 March)

Event Time Altitude Azimuth Distance (km) Brightness Sun altitude
Rises 05:35:45 0° 212° (SSW) 4,244 11.1 -15.3°
Reaches altitude 10° 05:39:46 10° 197° (SSW) 2,935 10.4 -14.5°
Maximum altitude 05:44:36 21° 152° (SSE) 1,903 10.0 -13.6°
Drops below altitude 10° 05:48:30 10° 104° (ESE) 2,296 11.4 -12.8°
Sets 05:51:11 0° 87° (E) 3,078 12.5 -12.3°
